TimePDT,TemperatureF,Dew PointF,Humidity,Sea Level PressureIn,VisibilityMPH,Wind Direction,Wind SpeedMPH,Gust SpeedMPH,PrecipitationIn,Events,Conditions,WindDirDegrees,DateUTC
12:56 AM,42.1,1.0,18,29.76,10.0,Calm,Calm,-,N/A,,Clear,0,2013-05-23 07:56:00
1:56 AM,37.0,8.1,30,29.75,10.0,WSW,3.5,-,N/A,,Clear,250,2013-05-23 08:56:00
2:56 AM,32.0,10.0,40,29.75,10.0,Calm,Calm,-,N/A,,Clear,0,2013-05-23 09:56:00
3:56 AM,33.1,9.0,37,29.75,10.0,WSW,3.5,-,N/A,,Clear,240,2013-05-23 10:56:00
4:56 AM,28.0,8.1,43,29.75,10.0,South,3.5,-,N/A,,Clear,170,2013-05-23 11:56:00
5:56 AM,30.9,10.9,43,29.77,10.0,SSW,3.5,-,N/A,,Clear,210,2013-05-23 12:56:00
6:16 AM,32.0,10.4,41,29.84,10.0,SSW,3.5,-,N/A,,Partly Cloudy,200,2013-05-23 13:16:00
6:56 AM,37.0,12.0,36,29.78,10.0,Calm,Calm,-,N/A,,Partly Cloudy,0,2013-05-23 13:56:00
7:56 AM,46.0,9.0,22,29.79,10.0,Calm,Calm,-,N/A,,Scattered Clouds,0,2013-05-23 14:56:00
8:56 AM,52.0,7.0,16,29.80,10.0,NW,4.6,-,N/A,,Scattered Clouds,310,2013-05-23 15:56:00
9:56 AM,55.9,16.0,21,29.80,10.0,Variable,4.6,-,N/A,,Mostly Cloudy,0,2013-05-23 16:56:00
10:56 AM,57.9,14.0,18,29.80,10.0,East,3.5,-,N/A,,Mostly Cloudy,100,2013-05-23 17:56:00
11:56 AM,57.9,12.0,16,29.80,10.0,Calm,Calm,-,N/A,,Scattered Clouds,0,2013-05-23 18:56:00
12:56 PM,61.0,10.9,14,29.81,10.0,NW,13.8,18.4,N/A,,Partly Cloudy,310,2013-05-23 19:56:00
1:56 PM,64.9,7.0,10,29.82,10.0,WNW,15.0,27.6,N/A,,Scattered Clouds,300,2013-05-23 20:56:00
2:56 PM,66.0,7.0,10,29.83,10.0,NW,15.0,25.3,N/A,,Scattered Clouds,310,2013-05-23 21:56:00
3:56 PM,64.9,10.0,12,29.83,10.0,WNW,9.2,19.6,N/A,,Scattered Clouds,290,2013-05-23 22:56:00
4:56 PM,66.0,12.0,12,29.84,10.0,North,9.2,19.6,N/A,,Scattered Clouds,350,2013-05-23 23:56:00
5:56 PM,64.9,12.9,13,29.85,10.0,NW,12.7,18.4,N/A,,Scattered Clouds,320,2013-05-24 00:56:00
6:56 PM,64.0,14.0,14,29.86,10.0,NNW,12.7,19.6,N/A,,Partly Cloudy,340,2013-05-24 01:56:00
7:56 PM,60.1,17.1,19,29.87,10.0,NNE,5.8,-,N/A,,Partly Cloudy,20,2013-05-24 02:56:00
8:56 PM,55.0,19.0,24,29.89,10.0,NE,6.9,-,N/A,,Partly Cloudy,40,2013-05-24 03:56:00
9:56 PM,52.0,21.0,30,29.91,10.0,NE,9.2,-,N/A,,Clear,40,2013-05-24 04:56:00
10:56 PM,46.0,21.0,37,29.92,10.0,Calm,Calm,-,N/A,,Clear,0,2013-05-24 05:56:00
11:56 PM,45.0,18.0,34,29.93,10.0,Calm,Calm,-,N/A,,Clear,0,2013-05-24 06:56:00